START_TIME,STEP,MOV.,M34,t_acc.,L5,t_acc.,L18,t_acc.,L14,t_acc.
1980-11-14 09:04:09.670 ,0,0,,0,,0,,0,,0
1980-11-14 09:04:21.670 ,0,0,,0,,0,,0,,0
1980-11-14 09:04:13.270 ,0,0,,0,,0,,0,,0
1980-11-14 09:04:25.270 ,0,0,,0,,0,,0,,0
1980-11-14 09:09:07.870 ,0,0,,0,,0,,0,,0
1980-11-14 09:09:19.870 ,0,0,0.,12.0,0.,12.0,0.,12.0,0.,12.0
1980-11-14 09:09:25.270 ,2,1,0.,12.0,0.,12.0,0.,12.0,0.,12.0
1980-11-14 09:09:37.270 ,2,1,0.,12.0,0.,12.0,0.,12.0,0.,12.0
1980-11-14 09:09:49.270 ,2,0,0.,12.0,0.,12.0,0.,12.0,0.,12.0
1980-11-14 09:10:01.270 ,2,0,0.,12.0,0.,12.0,0.,12.0,0.,12.0
1980-11-14 09:10:13.270 ,3,1,0.,12.0,0.,12.0,0.,12.0,0.,12.0
1980-11-14 09:10:25.270 ,3,1,0.,12.0,0.,12.0,0.,12.0,0.,12.0
1980-11-14 09:10:37.270 ,3,0,0.,12.0,0.,12.0,0.,12.0,0.,12.0
1980-11-14 09:10:49.270 ,3,0,0.,12.0,0.,12.0,0.,12.0,0.,12.0
1980-11-14 09:11:01.270 ,4,1,0.,12.0,0.,12.0,0.,12.0,0.,12.0
1980-11-14 09:11:13.270 ,4,1,0.,12.0,0.,12.0,0.,12.0,0.,12.0
1980-11-14 09:11:25.270 ,4,0,0.,12.0,0.,12.0,0.,12.0,0.,12.0
1980-11-14 09:11:37.270 ,4,0,0.,12.0,0.,12.0,0.,12.0,0.,12.0
1980-11-14 09:11:49.270 ,5,1,0.,12.0,0.,12.0,0.,12.0,0.,12.0
1980-11-14 09:12:01.270 ,5,1,0.,12.0,0.,12.0,0.,12.0,0.,12.0
1980-11-14 09:12:13.270 ,5,0,0.,12.0,0.,12.0,0.,12.0,0.,12.0
1980-11-14 09:12:25.270 ,5,0,0.,12.0,0.,12.0,0.,12.0,0.,12.0
1980-11-14 09:12:37.270 ,6,1,0.,12.0,0.,12.0,0.,12.0,0.,12.0
1980-11-14 09:12:49.270 ,6,1,0.,12.0,0.,12.0,0.,12.0,0.,12.0
1980-11-14 09:13:01.270 ,6,0,0.,12.0,0.,12.0,0.,12.0,0.,12.0
1980-11-14 09:13:13.270 ,6,0,0.,12.0,0.,12.0,0.,12.0,0.,12.0
1980-11-14 09:13:25.270 ,7,1,0.,12.0,0.,12.0,0.,12.0,0.,12.0
1980-11-14 09:13:37.270 ,7,1,0.,12.0,4.,12.0,0.,12.0,0.,12.0
1980-11-14 09:13:49.270 ,7,0,0.,12.0,9.,12.0,0.,12.0,0.,12.0
1980-11-14 09:14:01.270 ,7,0,0.,12.0,1.,12.0,0.,12.0,0.,12.0
1980-11-14 09:14:13.270 ,7,1,0.,12.0,3.,12.0,0.,12.0,0.,12.0
1980-11-14 09:14:25.270 ,7,1,0.,12.0,3.,12.0,0.,12.0,0.,12.0
1980-11-14 09:14:37.270 ,7,0,0.,12.0,4.,12.0,0.,12.0,0.,12.0
1980-11-14 09:14:49.270 ,7,0,0.,12.0,3.,12.0,0.,12.0,0.,12.0
1980-11-14 09:15:01.270 ,6,1,0.,12.0,5.,12.0,0.,12.0,0.,12.0
1980-11-14 09:15:13.270 ,6,1,0.,12.0,0.,12.0,0.,12.0,0.,12.0
1980-11-14 09:15:25.270 ,6,0,0.,12.0,0.,12.0,0.,12.0,0.,12.0
1980-11-14 09:15:37.270 ,6,0,0.,12.0,0.,12.0,0.,12.0,0.,12.0
1980-11-14 09:15:49.270 ,5,1,0.,12.0,0.,12.0,0.,12.0,0.,12.0
1980-11-14 09:16:01.270 ,5,1,0.,12.0,0.,12.0,0.,12.0,0.,12.0
1980-11-14 09:16:13.270 ,5,0,0.,12.0,0.,12.0,0.,12.0,0.,12.0
1980-11-14 09:16:25.270 ,5,0,0.,12.0,0.,12.0,0.,12.0,0.,12.0
1980-11-14 09:16:37.270 ,4,1,0.,12.0,0.,12.0,0.,12.0,0.,12.0
1980-11-14 09:16:49.270 ,4,1,0.,12.0,0.,12.0,0.,12.0,0.,12.0
1980-11-14 09:17:01.270 ,4,0,0.,12.0,0.,12.0,0.,12.0,0.,12.0
1980-11-14 09:17:13.270 ,4,0,0.,12.0,0.,12.0,0.,12.0,0.,12.0
1980-11-14 09:17:25.270 ,3,1,0.,12.0,0.,12.0,0.,12.0,0.,12.0
1980-11-14 09:17:37.270 ,3,1,0.,12.0,0.,12.0,0.,12.0,0.,12.0
1980-11-14 09:17:49.270 ,3,0,0.,12.0,0.,12.0,0.,12.0,0.,12.0
1980-11-14 09:18:01.270 ,3,0,0.,12.0,0.,12.0,0.,12.0,0.,12.0
1980-11-14 09:18:13.270 ,2,1,0.,12.0,0.,12.0,0.,12.0,0.,12.0
1980-11-14 09:18:25.270 ,2,1,0.,12.0,0.,12.0,0.,12.0,0.,12.0
1980-11-14 09:18:37.270 ,2,0,0.,12.0,0.,12.0,0.,12.0,0.,12.0
1980-11-14 09:18:49.270 ,2,0,0.,12.0,0.,12.0,0.,12.0,0.,12.0
1980-11-14 09:19:01.270 ,1,1,0.,12.0,0.,12.0,0.,12.0,0.,12.0
1980-11-14 09:19:13.270 ,1,1,0.,12.0,0.,12.0,0.,12.0,0.,12.0
1980-11-14 09:19:25.270 ,1,0,0.,12.0,0.,12.0,0.,12.0,0.,12.0
1980-11-14 09:19:37.270 ,1,0,0.,12.0,0.,12.0,0.,12.0,0.,12.0
1980-11-14 09:19:49.270 ,0,1,0.,12.0,0.,12.0,0.,12.0,0.,12.0
1980-11-14 09:20:01.270 ,0,1,0.,12.0,0.,12.0,0.,12.0,0.,12.0
1980-11-14 09:20:13.270 ,0,0,0.,12.0,0.,12.0,0.,12.0,0.,12.0
1980-11-14 09:20:25.270 ,0,0,0.,12.0,0.,12.0,0.,12.0,0.,12.0
1980-11-14 09:20:37.270 ,0,1,0.,12.0,0.,12.0,0.,12.0,0.,12.0
1980-11-14 09:20:49.270 ,0,1,0.,12.0,0.,12.0,0.,12.0,0.,12.0
1980-11-14 09:21:01.270 ,0,0,0.,12.0,0.,12.0,0.,12.0,0.,12.0
1980-11-14 09:21:13.270 ,0,0,0.,12.0,0.,12.0,0.,12.0,0.,12.0
1980-11-14 09:21:19.870 ,0,0,,0,,0,,0,,0
1980-11-14 09:21:31.870 ,0,0,,0,,0,,0,,0
1980-11-14 09:21:25.270 ,1,1,0.,12.0,0.,12.0,0.,12.0,0.,12.0
1980-11-14 09:21:37.270 ,1,1,0.,12.0,0.,12.0,0.,12.0,0.,12.0
1980-11-14 09:21:49.270 ,1,0,0.,12.0,0.,12.0,0.,12.0,0.,12.0
1980-11-14 09:22:01.270 ,1,0,0.,12.0,0.,12.0,0.,12.0,0.,12.0
1980-11-14 09:22:13.270 ,2,1,0.,12.0,0.,12.0,0.,12.0,0.,12.0
1980-11-14 09:22:25.270 ,2,1,0.,12.0,0.,12.0,0.,12.0,0.,12.0
1980-11-14 09:22:37.270 ,2,0,0.,12.0,0.,12.0,0.,12.0,0.,12.0
1980-11-14 09:22:49.270 ,2,0,0.,12.0,0.,12.0,0.,12.0,0.,12.0
1980-11-14 09:23:01.270 ,3,1,0.,12.0,0.,12.0,0.,12.0,0.,12.0
1980-11-14 09:23:13.270 ,3,1,0.,12.0,0.,12.0,0.,12.0,0.,12.0
1980-11-14 09:23:25.270 ,3,0,0.,12.0,0.,12.0,0.,12.0,0.,12.0
1980-11-14 09:23:37.270 ,3,0,0.,12.0,0.,12.0,0.,12.0,0.,12.0
1980-11-14 09:23:49.270 ,4,1,0.,12.0,0.,12.0,0.,12.0,0.,12.0
1980-11-14 09:24:01.270 ,4,1,0.,12.0,0.,12.0,0.,12.0,0.,12.0
1980-11-14 09:24:13.270 ,4,0,0.,12.0,0.,12.0,0.,12.0,0.,12.0
1980-11-14 09:24:25.270 ,4,0,0.,12.0,0.,12.0,0.,12.0,0.,12.0
1980-11-14 09:24:37.270 ,5,1,0.,12.0,0.,12.0,0.,12.0,0.,12.0
1980-11-14 09:24:49.270 ,5,1,0.,12.0,0.,12.0,0.,12.0,0.,12.0
1980-11-14 09:25:01.270 ,5,0,0.,12.0,0.,12.0,0.,12.0,0.,12.0
1980-11-14 09:25:13.270 ,5,0,0.,12.0,0.,12.0,0.,12.0,0.,12.0
1980-11-14 09:25:25.270 ,6,1,0.,12.0,0.,12.0,0.,12.0,0.,12.0
1980-11-14 09:25:37.270 ,6,1,0.,12.0,0.,12.0,0.,12.0,0.,12.0
1980-11-14 09:25:49.270 ,6,0,0.,12.0,0.,12.0,0.,12.0,0.,12.0
1980-11-14 09:26:01.270 ,6,0,0.,12.0,0.,12.0,0.,12.0,0.,12.0
1980-11-14 09:26:13.270 ,7,1,0.,12.0,0.,12.0,0.,12.0,0.,12.0
1980-11-14 09:26:25.270 ,7,1,0.,12.0,4.,12.0,0.,12.0,0.,12.0
1980-11-14 09:26:37.270 ,7,0,0.,12.0,5.,12.0,0.,12.0,0.,12.0
1980-11-14 09:26:49.270 ,7,0,0.,12.0,6.,12.0,0.,12.0,0.,12.0
1980-11-14 09:27:01.270 ,7,1,0.,12.0,3.,12.0,0.,12.0,0.,12.0
1980-11-14 09:27:13.270 ,7,1,0.,12.0,5.,12.0,0.,12.0,0.,12.0
1980-11-14 09:27:25.270 ,7,0,0.,12.0,4.,12.0,0.,12.0,0.,12.0
1980-11-14 09:27:37.270 ,7,0,0.,12.0,3.,12.0,0.,12.0,0.,12.0
1980-11-14 09:27:49.270 ,6,1,0.,12.0,9.,12.0,0.,12.0,0.,12.0
1980-11-14 09:28:01.270 ,6,1,0.,12.0,1.,12.0,0.,12.0,0.,12.0
1980-11-14 09:28:13.270 ,6,0,0.,12.0,0.,12.0,0.,12.0,0.,12.0
1980-11-14 09:28:25.270 ,6,0,0.,12.0,0.,12.0,0.,12.0,0.,12.0
1980-11-14 09:28:37.270 ,5,1,0.,12.0,0.,12.0,0.,12.0,0.,12.0
1980-11-14 09:28:49.270 ,5,1,0.,12.0,0.,12.0,0.,12.0,0.,12.0
1980-11-14 09:29:01.270 ,5,0,0.,12.0,0.,12.0,0.,12.0,0.,12.0
1980-11-14 09:29:13.270 ,5,0,0.,12.0,0.,12.0,0.,12.0,0.,12.0
1980-11-14 09:29:25.270 ,4,1,0.,12.0,0.,12.0,0.,12.0,0.,12.0
1980-11-14 09:29:37.270 ,4,1,0.,12.0,0.,12.0,0.,12.0,0.,12.0
1980-11-14 09:29:49.270 ,4,0,0.,12.0,0.,12.0,0.,12.0,0.,12.0
1980-11-14 09:30:01.270 ,4,0,0.,12.0,0.,12.0,0.,12.0,0.,12.0
1980-11-14 09:30:13.270 ,3,1,0.,12.0,0.,12.0,0.,12.0,0.,12.0
1980-11-14 09:30:25.270 ,3,1,0.,12.0,0.,12.0,0.,12.0,0.,12.0
1980-11-14 09:30:37.270 ,3,0,0.,12.0,0.,12.0,0.,12.0,0.,12.0
1980-11-14 09:30:49.270 ,3,0,0.,12.0,0.,12.0,0.,12.0,0.,12.0
1980-11-14 09:31:01.270 ,2,1,0.,12.0,0.,12.0,0.,12.0,0.,12.0
1980-11-14 09:31:13.270 ,2,1,0.,12.0,0.,12.0,0.,12.0,0.,12.0
1980-11-14 09:31:25.270 ,2,0,0.,12.0,0.,12.0,0.,12.0,0.,12.0
1980-11-14 09:31:37.270 ,2,0,0.,12.0,0.,12.0,0.,12.0,0.,12.0
1980-11-14 09:31:49.270 ,1,1,0.,12.0,0.,12.0,0.,12.0,0.,12.0
1980-11-14 09:32:01.270 ,1,1,0.,12.0,0.,12.0,0.,12.0,0.,12.0
1980-11-14 09:32:13.270 ,1,0,0.,12.0,0.,12.0,0.,12.0,0.,12.0
1980-11-14 09:32:25.270 ,1,0,0.,12.0,0.,12.0,0.,12.0,0.,12.0
1980-11-14 09:32:37.270 ,0,1,0.,12.0,0.,12.0,0.,12.0,0.,12.0
1980-11-14 09:32:49.270 ,0,1,0.,12.0,0.,12.0,0.,12.0,0.,12.0
1980-11-14 09:33:01.270 ,0,0,0.,12.0,0.,12.0,0.,12.0,0.,12.0
1980-11-14 09:33:13.270 ,0,0,0.,12.0,0.,12.0,0.,12.0,0.,12.0
1980-11-14 09:33:25.270 ,0,1,0.,12.0,0.,12.0,0.,12.0,0.,12.0
1980-11-14 09:33:37.270 ,0,1,0.,12.0,0.,12.0,0.,12.0,0.,12.0
1980-11-14 09:33:49.270 ,0,0,0.,12.0,0.,12.0,0.,12.0,0.,12.0
1980-11-14 09:34:01.270 ,0,0,0.,12.0,0.,12.0,0.,12.0,0.,12.0
1980-11-14 09:34:13.270 ,1,1,0.,12.0,0.,12.0,0.,12.0,0.,12.0
1980-11-14 09:34:25.270 ,1,1,0.,12.0,0.,12.0,0.,12.0,0.,12.0
1980-11-14 09:34:37.270 ,1,0,0.,12.0,0.,12.0,0.,12.0,0.,12.0
1980-11-14 09:34:49.270 ,1,0,0.,12.0,0.,12.0,0.,12.0,0.,12.0
1980-11-14 09:35:01.270 ,2,1,0.,12.0,0.,12.0,0.,12.0,0.,12.0
1980-11-14 09:35:13.270 ,2,1,0.,12.0,0.,12.0,0.,12.0,0.,12.0
1980-11-14 09:35:25.270 ,2,0,0.,12.0,0.,12.0,0.,12.0,0.,12.0
1980-11-14 09:35:37.270 ,2,0,0.,12.0,0.,12.0,0.,12.0,0.,12.0
1980-11-14 09:35:49.270 ,0,0,0.,12.0,0.,12.0,0.,12.0,0.,12.0
1980-11-14 09:36:01.270 ,0,0,0.,12.0,0.,12.0,0.,12.0,0.,12.0
1980-11-14 09:36:13.270 ,0,0,0.,12.0,0.,12.0,0.,12.0,0.,12.0
1980-11-14 09:36:25.270 ,0,0,0.,12.0,0.,12.0,0.,12.0,0.,12.0
1980-11-14 09:36:37.270 ,4,1,0.,12.0,0.,12.0,0.,12.0,0.,12.0
1980-11-14 09:36:49.270 ,4,1,0.,12.0,0.,12.0,0.,12.0,0.,12.0
1980-11-14 09:37:01.270 ,4,0,0.,12.0,0.,12.0,0.,12.0,0.,12.0
1980-11-14 09:37:13.270 ,4,0,0.,12.0,0.,12.0,0.,12.0,0.,12.0
1980-11-14 09:37:25.270 ,5,1,0.,12.0,0.,12.0,0.,12.0,0.,12.0
1980-11-14 09:37:37.270 ,5,1,0.,12.0,0.,12.0,0.,12.0,0.,12.0
1980-11-14 09:37:49.270 ,5,0,0.,12.0,0.,12.0,0.,12.0,0.,12.0
1980-11-14 09:38:01.270 ,5,0,0.,12.0,0.,12.0,0.,12.0,0.,12.0
1980-11-14 09:38:13.270 ,6,1,0.,12.0,0.,12.0,0.,12.0,0.,12.0
1980-11-14 09:38:25.270 ,6,1,0.,12.0,0.,12.0,0.,12.0,0.,12.0
1980-11-14 09:38:37.270 ,6,0,0.,12.0,0.,12.0,0.,12.0,0.,12.0
1980-11-14 09:38:49.270 ,6,0,0.,12.0,0.,12.0,0.,12.0,0.,12.0
1980-11-14 09:39:01.270 ,7,1,0.,12.0,0.,12.0,0.,12.0,0.,12.0
1980-11-14 09:39:13.270 ,7,1,0.,12.0,1.,12.0,0.,12.0,0.,12.0
1980-11-14 09:39:25.270 ,7,0,0.,12.0,5.,12.0,0.,12.0,0.,12.0
1980-11-14 09:39:37.270 ,7,0,0.,12.0,3.,12.0,0.,12.0,0.,12.0
1980-11-14 09:39:49.270 ,7,1,0.,12.0,4.,12.0,0.,12.0,0.,12.0
1980-11-14 09:40:01.270 ,7,1,0.,12.0,5.,12.0,0.,12.0,0.,12.0
1980-11-14 09:40:13.270 ,7,0,0.,12.0,2.,12.0,0.,12.0,0.,12.0
1980-11-14 09:40:25.270 ,7,0,0.,12.0,3.,12.0,0.,12.0,0.,12.0
1980-11-14 09:40:37.270 ,6,1,0.,12.0,2.,12.0,0.,12.0,0.,12.0
1980-11-14 09:40:49.270 ,6,1,0.,12.0,2.,12.0,0.,12.0,0.,12.0
1980-11-14 09:41:01.270 ,6,0,0.,12.0,0.,12.0,0.,12.0,0.,12.0
1980-11-14 09:41:13.270 ,6,0,0.,12.0,0.,12.0,0.,12.0,0.,12.0
1980-11-14 09:41:25.270 ,5,1,0.,12.0,1.,12.0,0.,12.0,0.,12.0
1980-11-14 09:41:37.270 ,5,1,0.,12.0,0.,12.0,0.,12.0,0.,12.0
1980-11-14 09:41:49.270 ,5,0,0.,12.0,0.,12.0,0.,12.0,0.,12.0
1980-11-14 09:42:01.270 ,5,0,0.,12.0,0.,12.0,0.,12.0,0.,12.0
1980-11-14 09:42:13.270 ,4,1,0.,12.0,0.,12.0,0.,12.0,0.,12.0
1980-11-14 09:42:25.270 ,4,1,0.,12.0,0.,12.0,0.,12.0,0.,12.0
1980-11-14 09:42:37.270 ,4,0,0.,12.0,0.,12.0,0.,12.0,0.,12.0
1980-11-14 09:42:49.270 ,4,0,0.,12.0,0.,12.0,0.,12.0,0.,12.0
1980-11-14 09:43:01.270 ,3,1,0.,12.0,0.,12.0,0.,12.0,0.,12.0
1980-11-14 09:43:13.270 ,3,1,0.,12.0,0.,12.0,0.,12.0,0.,12.0
1980-11-14 09:43:25.270 ,3,0,0.,12.0,0.,12.0,0.,12.0,0.,12.0
1980-11-14 09:43:37.270 ,3,0,0.,12.0,0.,12.0,0.,12.0,0.,12.0
1980-11-14 09:43:49.270 ,2,1,0.,12.0,0.,12.0,0.,12.0,0.,12.0
1980-11-14 09:44:01.270 ,2,1,0.,12.0,0.,12.0,0.,12.0,0.,12.0
1980-11-14 09:44:13.270 ,2,0,0.,12.0,0.,12.0,0.,12.0,0.,12.0
1980-11-14 09:44:25.270 ,2,0,0.,12.0,0.,12.0,0.,12.0,0.,12.0
1980-11-14 09:44:37.270 ,1,1,0.,12.0,0.,12.0,0.,12.0,0.,12.0
1980-11-14 09:44:49.270 ,1,1,0.,12.0,0.,12.0,0.,12.0,0.,12.0
1980-11-14 09:45:01.270 ,1,0,0.,12.0,0.,12.0,0.,12.0,0.,12.0
1980-11-14 09:45:13.270 ,1,0,0.,12.0,0.,12.0,0.,12.0,0.,12.0
1980-11-14 09:45:25.270 ,0,1,0.,12.0,0.,12.0,0.,12.0,0.,12.0
1980-11-14 09:45:37.270 ,0,1,0.,12.0,0.,12.0,0.,12.0,0.,12.0
1980-11-14 09:45:49.270 ,0,0,0.,12.0,0.,12.0,0.,12.0,0.,12.0
1980-11-14 09:46:01.270 ,0,0,0.,12.0,0.,12.0,0.,12.0,0.,12.0
1980-11-14 09:46:13.270 ,0,1,0.,12.0,0.,12.0,0.,12.0,0.,12.0
1980-11-14 09:46:25.270 ,0,1,0.,12.0,0.,12.0,0.,12.0,0.,12.0
1980-11-14 09:46:37.270 ,0,0,0.,12.0,0.,12.0,0.,12.0,0.,12.0
1980-11-14 09:46:49.270 ,0,0,0.,12.0,0.,12.0,0.,12.0,0.,12.0
1980-11-14 09:47:01.270 ,1,1,0.,12.0,0.,12.0,0.,12.0,0.,12.0
1980-11-14 09:47:13.270 ,1,1,0.,12.0,0.,12.0,0.,12.0,0.,12.0
1980-11-14 09:47:25.270 ,1,0,0.,12.0,0.,12.0,0.,12.0,0.,12.0
1980-11-14 09:47:37.270 ,1,0,0.,12.0,0.,12.0,0.,12.0,0.,12.0
1980-11-14 09:47:49.270 ,2,1,0.,12.0,0.,12.0,0.,12.0,0.,12.0
1980-11-14 09:48:01.270 ,2,1,0.,12.0,0.,12.0,0.,12.0,0.,12.0
1980-11-14 09:48:13.270 ,2,0,0.,12.0,0.,12.0,0.,12.0,0.,12.0
1980-11-14 09:48:25.270 ,2,0,0.,12.0,0.,12.0,0.,12.0,0.,12.0
1980-11-14 09:48:37.270 ,3,1,0.,12.0,0.,12.0,0.,12.0,0.,12.0
1980-11-14 09:48:49.270 ,3,1,0.,12.0,0.,12.0,0.,12.0,0.,12.0
1980-11-14 09:49:01.270 ,3,0,0.,12.0,0.,12.0,0.,12.0,0.,12.0
1980-11-14 09:49:13.270 ,3,0,0.,12.0,0.,12.0,0.,12.0,0.,12.0
1980-11-14 09:49:25.270 ,4,1,0.,12.0,0.,12.0,0.,12.0,0.,12.0
1980-11-14 09:49:37.270 ,4,1,0.,12.0,0.,12.0,0.,12.0,0.,12.0
1980-11-14 09:49:49.270 ,4,0,0.,12.0,0.,12.0,0.,12.0,0.,12.0
1980-11-14 09:50:01.270 ,4,0,0.,12.0,0.,12.0,0.,12.0,0.,12.0
1980-11-14 09:50:13.270 ,5,1,0.,12.0,0.,12.0,0.,12.0,0.,12.0
1980-11-14 09:50:25.270 ,5,1,0.,12.0,0.,12.0,0.,12.0,0.,12.0
1980-11-14 09:50:37.270 ,5,0,0.,12.0,0.,12.0,0.,12.0,0.,12.0
1980-11-14 09:50:49.270 ,5,0,0.,12.0,0.,12.0,0.,12.0,0.,12.0
1980-11-14 09:51:01.270 ,6,1,0.,12.0,0.,12.0,0.,12.0,0.,12.0
1980-11-14 09:51:13.270 ,6,1,0.,12.0,0.,12.0,0.,12.0,0.,12.0
1980-11-14 09:51:25.270 ,6,0,0.,12.0,0.,12.0,0.,12.0,0.,12.0
1980-11-14 09:51:37.270 ,6,0,0.,12.0,0.,12.0,0.,12.0,0.,12.0
1980-11-14 09:51:49.270 ,7,1,0.,12.0,0.,12.0,0.,12.0,0.,12.0
1980-11-14 09:52:01.270 ,7,1,0.,12.0,5.,12.0,0.,12.0,0.,12.0
1980-11-14 09:52:13.270 ,0,0,0.,12.0,6.,12.0,0.,12.0,0.,12.0
1980-11-14 09:52:25.270 ,0,0,0.,12.0,7.,12.0,0.,12.0,0.,12.0
1980-11-14 09:53:06.070 ,0,0,,0,,0,,0,,0
1980-11-14 09:53:18.070 ,0,0,0.,12.0,3.,12.0,0.,12.0,0.,12.0
1980-11-14 09:53:25.270 ,6,1,0.,12.0,13.,12.0,0.,12.0,0.,12.0
1980-11-14 09:53:37.270 ,6,1,0.,12.0,1.,12.0,0.,12.0,0.,12.0
1980-11-14 09:53:49.270 ,6,0,0.,12.0,0.,12.0,0.,12.0,0.,12.0
1980-11-14 09:54:01.270 ,6,0,0.,12.0,0.,12.0,0.,12.0,0.,12.0
1980-11-14 09:54:13.270 ,5,1,0.,12.0,0.,12.0,0.,12.0,0.,12.0
1980-11-14 09:54:25.270 ,5,1,0.,12.0,0.,12.0,0.,12.0,0.,12.0
1980-11-14 09:54:37.270 ,5,0,0.,12.0,0.,12.0,0.,12.0,0.,12.0
1980-11-14 09:54:49.270 ,5,0,0.,12.0,0.,12.0,0.,12.0,0.,12.0
1980-11-14 09:55:01.270 ,4,1,0.,12.0,0.,12.0,0.,12.0,0.,12.0
1980-11-14 09:55:13.270 ,4,1,0.,12.0,0.,12.0,0.,12.0,0.,12.0
1980-11-14 09:55:25.270 ,4,0,0.,12.0,0.,12.0,0.,12.0,0.,12.0
1980-11-14 09:55:37.270 ,4,0,0.,12.0,0.,12.0,0.,12.0,0.,12.0
1980-11-14 09:55:49.270 ,3,1,0.,12.0,0.,12.0,0.,12.0,0.,12.0
1980-11-14 09:56:01.270 ,3,1,0.,12.0,0.,12.0,0.,12.0,0.,12.0
1980-11-14 09:56:13.270 ,3,0,0.,12.0,0.,12.0,0.,12.0,0.,12.0
1980-11-14 09:56:25.270 ,3,0,0.,12.0,0.,12.0,0.,12.0,0.,12.0
1980-11-14 09:56:37.270 ,2,1,0.,12.0,0.,12.0,0.,12.0,0.,12.0
1980-11-14 09:56:49.270 ,2,1,0.,12.0,0.,12.0,0.,12.0,0.,12.0
1980-11-14 09:57:01.270 ,2,0,0.,12.0,0.,12.0,0.,12.0,0.,12.0
1980-11-14 09:57:13.270 ,2,0,0.,12.0,0.,12.0,0.,12.0,0.,12.0
1980-11-14 09:57:25.270 ,1,1,0.,12.0,0.,12.0,0.,12.0,0.,12.0
1980-11-14 09:57:37.270 ,1,1,0.,12.0,0.,12.0,0.,12.0,0.,12.0
1980-11-14 09:57:49.270 ,1,0,0.,12.0,0.,12.0,0.,12.0,0.,12.0
1980-11-14 09:58:01.270 ,1,0,0.,12.0,0.,12.0,0.,12.0,0.,12.0
1980-11-14 09:58:13.270 ,0,1,0.,12.0,0.,12.0,0.,12.0,0.,12.0
1980-11-14 09:58:25.270 ,0,1,0.,12.0,0.,12.0,0.,12.0,0.,12.0
1980-11-14 09:58:37.270 ,0,0,0.,12.0,0.,12.0,0.,12.0,0.,12.0
1980-11-14 09:58:49.270 ,0,0,0.,12.0,0.,12.0,0.,12.0,0.,12.0
1980-11-14 09:59:01.270 ,0,1,0.,12.0,0.,12.0,0.,12.0,0.,12.0
1980-11-14 09:59:13.270 ,0,1,0.,12.0,0.,12.0,0.,12.0,0.,12.0
1980-11-14 09:59:25.270 ,0,0,0.,12.0,0.,12.0,0.,12.0,0.,12.0
1980-11-14 09:59:37.270 ,0,0,0.,12.0,1.,12.0,0.,12.0,0.,12.0
1980-11-14 09:59:49.270 ,1,1,0.,12.0,0.,12.0,0.,12.0,0.,12.0
1980-11-14 10:00:01.270 ,1,1,0.,12.0,0.,12.0,0.,12.0,0.,12.0
1980-11-14 10:00:13.270 ,1,0,0.,12.0,0.,12.0,0.,12.0,0.,12.0
1980-11-14 10:00:25.270 ,1,0,0.,12.0,0.,12.0,0.,12.0,0.,12.0
1980-11-14 10:00:37.270 ,2,1,0.,12.0,0.,12.0,0.,12.0,0.,12.0
1980-11-14 10:00:49.270 ,2,1,0.,12.0,0.,12.0,0.,12.0,0.,12.0
1980-11-14 10:01:01.270 ,2,0,0.,12.0,0.,12.0,0.,12.0,0.,12.0
1980-11-14 10:01:13.270 ,2,0,0.,12.0,0.,12.0,0.,12.0,0.,12.0
1980-11-14 10:01:25.270 ,3,1,0.,12.0,0.,12.0,0.,12.0,0.,12.0
1980-11-14 10:01:37.270 ,3,1,0.,12.0,0.,12.0,0.,12.0,0.,12.0
1980-11-14 10:01:49.270 ,3,0,0.,12.0,0.,12.0,0.,12.0,0.,12.0
1980-11-14 10:02:01.270 ,3,0,0.,12.0,0.,12.0,0.,12.0,0.,12.0
1980-11-14 10:02:13.270 ,4,1,0.,12.0,0.,12.0,0.,12.0,0.,12.0
1980-11-14 10:02:25.270 ,4,1,0.,12.0,0.,12.0,0.,12.0,0.,12.0
1980-11-14 10:02:37.270 ,4,0,0.,12.0,0.,12.0,0.,12.0,0.,12.0
1980-11-14 10:02:49.270 ,4,0,0.,12.0,0.,12.0,0.,12.0,0.,12.0
1980-11-14 10:03:01.270 ,5,1,0.,12.0,0.,12.0,0.,12.0,0.,12.0
1980-11-14 10:03:13.270 ,5,1,0.,12.0,0.,12.0,0.,12.0,0.,12.0
1980-11-14 10:03:25.270 ,5,0,0.,12.0,0.,12.0,0.,12.0,0.,12.0
1980-11-14 10:03:37.270 ,5,0,0.,12.0,0.,12.0,0.,12.0,0.,12.0
1980-11-14 10:03:49.270 ,6,1,0.,12.0,0.,12.0,0.,12.0,0.,12.0
1980-11-14 10:04:01.270 ,6,1,0.,12.0,0.,12.0,0.,12.0,0.,12.0
1980-11-14 10:04:13.270 ,6,0,0.,12.0,0.,12.0,0.,12.0,0.,12.0
1980-11-14 10:04:25.270 ,6,0,0.,12.0,0.,12.0,0.,12.0,0.,12.0
1980-11-14 10:04:37.270 ,7,1,0.,12.0,0.,12.0,0.,12.0,0.,12.0
1980-11-14 10:04:49.270 ,7,1,0.,12.0,2.,12.0,0.,12.0,0.,12.0
1980-11-14 10:05:01.270 ,7,0,0.,12.0,1.,12.0,0.,12.0,0.,12.0
1980-11-14 10:05:13.270 ,7,0,0.,12.0,4.,12.0,0.,12.0,0.,12.0
1980-11-14 10:05:25.270 ,7,1,0.,12.0,5.,12.0,0.,12.0,0.,12.0
1980-11-14 10:05:37.270 ,7,1,0.,12.0,1.,12.0,0.,12.0,0.,12.0
1980-11-14 10:05:49.270 ,7,0,0.,12.0,1.,12.0,0.,12.0,0.,12.0
1980-11-14 10:06:01.270 ,7,0,0.,12.0,3.,12.0,0.,12.0,0.,12.0
1980-11-14 10:06:13.270 ,6,1,0.,12.0,13.,12.0,0.,12.0,0.,12.0
1980-11-14 10:06:25.270 ,6,1,0.,12.0,1.,12.0,0.,12.0,0.,12.0
1980-11-14 10:06:37.270 ,6,0,0.,12.0,0.,12.0,0.,12.0,0.,12.0
1980-11-14 10:06:49.270 ,6,0,0.,12.0,0.,12.0,0.,12.0,0.,12.0
1980-11-14 10:07:01.270 ,5,1,0.,12.0,0.,12.0,0.,12.0,0.,12.0
1980-11-14 10:07:13.270 ,5,1,0.,12.0,0.,12.0,0.,12.0,0.,12.0
1980-11-14 10:07:25.270 ,5,0,0.,12.0,0.,12.0,0.,12.0,0.,12.0
1980-11-14 10:07:37.270 ,5,0,0.,12.0,0.,12.0,0.,12.0,0.,12.0
1980-11-14 10:07:49.270 ,4,1,0.,12.0,0.,12.0,0.,12.0,0.,12.0
1980-11-14 10:08:01.270 ,4,1,0.,12.0,0.,12.0,0.,12.0,0.,12.0
1980-11-14 10:08:13.270 ,4,0,0.,12.0,0.,12.0,0.,12.0,0.,12.0
1980-11-14 10:08:25.270 ,4,0,0.,12.0,1.,12.0,0.,12.0,0.,12.0
1980-11-14 10:08:37.270 ,3,1,0.,12.0,0.,12.0,0.,12.0,0.,12.0
1980-11-14 10:08:49.270 ,3,1,0.,12.0,0.,12.0,0.,12.0,0.,12.0
1980-11-14 10:09:01.270 ,3,0,0.,12.0,0.,12.0,0.,12.0,0.,12.0
1980-11-14 10:09:13.270 ,3,0,0.,12.0,0.,12.0,0.,12.0,0.,12.0
1980-11-14 10:09:25.270 ,2,1,0.,12.0,0.,12.0,0.,12.0,0.,12.0
1980-11-14 10:09:37.270 ,2,1,0.,12.0,0.,12.0,0.,12.0,0.,12.0
1980-11-14 10:09:49.270 ,2,0,0.,12.0,0.,12.0,0.,12.0,0.,12.0
1980-11-14 10:10:01.270 ,2,0,0.,12.0,0.,12.0,0.,12.0,0.,12.0
1980-11-14 10:10:13.270 ,1,1,0.,12.0,0.,12.0,0.,12.0,0.,12.0
1980-11-14 10:10:25.270 ,1,1,0.,12.0,0.,12.0,0.,12.0,0.,12.0
1980-11-14 10:10:37.270 ,1,0,0.,12.0,0.,12.0,0.,12.0,0.,12.0
1980-11-14 10:10:49.270 ,1,0,0.,12.0,0.,12.0,0.,12.0,0.,12.0
1980-11-14 10:11:01.270 ,0,1,0.,12.0,0.,12.0,0.,12.0,0.,12.0
1980-11-14 10:11:13.270 ,0,1,0.,12.0,0.,12.0,0.,12.0,0.,12.0
1980-11-14 10:11:25.270 ,0,0,0.,12.0,0.,12.0,0.,12.0,0.,12.0
1980-11-14 10:11:37.270 ,0,0,0.,12.0,0.,12.0,0.,12.0,0.,12.0
1980-11-14 10:11:49.270 ,0,1,0.,12.0,0.,12.0,0.,12.0,0.,12.0
1980-11-14 10:12:01.270 ,0,1,0.,12.0,0.,12.0,0.,12.0,0.,12.0
1980-11-14 10:12:13.270 ,0,0,0.,12.0,0.,12.0,0.,12.0,0.,12.0
1980-11-14 10:12:25.270 ,0,0,0.,12.0,0.,12.0,0.,12.0,0.,12.0
1980-11-14 10:12:37.270 ,1,1,0.,12.0,0.,12.0,0.,12.0,0.,12.0
1980-11-14 10:12:49.270 ,1,1,0.,12.0,0.,12.0,0.,12.0,0.,12.0
1980-11-14 10:13:01.270 ,1,0,0.,12.0,0.,12.0,0.,12.0,0.,12.0
1980-11-14 10:13:13.270 ,1,0,0.,12.0,0.,12.0,0.,12.0,0.,12.0
1980-11-14 10:13:25.270 ,2,1,0.,12.0,0.,12.0,0.,12.0,0.,12.0
1980-11-14 10:13:37.270 ,2,1,0.,12.0,0.,12.0,0.,12.0,0.,12.0
1980-11-14 10:13:49.270 ,2,0,0.,12.0,0.,12.0,0.,12.0,0.,12.0
1980-11-14 10:14:01.270 ,2,0,0.,12.0,0.,12.0,0.,12.0,0.,12.0
1980-11-14 10:14:13.270 ,3,1,0.,12.0,0.,12.0,0.,12.0,0.,12.0
1980-11-14 10:14:25.270 ,3,1,0.,12.0,0.,12.0,0.,12.0,0.,12.0
1980-11-14 10:14:37.270 ,3,0,0.,12.0,0.,12.0,0.,12.0,0.,12.0
1980-11-14 10:14:49.270 ,3,0,0.,12.0,0.,12.0,0.,12.0,0.,12.0
1980-11-14 10:15:01.270 ,4,1,0.,12.0,0.,12.0,0.,12.0,0.,12.0
1980-11-14 10:15:13.270 ,4,1,0.,12.0,0.,12.0,0.,12.0,0.,12.0
1980-11-14 10:15:25.270 ,4,0,0.,12.0,0.,12.0,0.,12.0,0.,12.0
1980-11-14 10:15:37.270 ,4,0,0.,12.0,0.,12.0,0.,12.0,0.,12.0
1980-11-14 10:15:49.270 ,5,1,0.,12.0,0.,12.0,0.,12.0,0.,12.0
1980-11-14 10:16:01.270 ,5,1,0.,12.0,0.,12.0,0.,12.0,0.,12.0
1980-11-14 10:16:13.270 ,5,0,0.,12.0,0.,12.0,0.,12.0,0.,12.0
1980-11-14 10:16:25.270 ,5,0,0.,12.0,0.,12.0,0.,12.0,0.,12.0
1980-11-14 10:16:37.270 ,0,0,,0,,0,,0,,0
1980-11-14 10:16:49.270 ,0,0,,0,,0,,0,,0
1980-11-14 10:17:01.270 ,0,0,,0,,0,,0,,0
1980-11-14 10:17:13.270 ,0,0,0.,12.0,0.,12.0,0.,12.0,0.,12.0
1980-11-14 10:17:25.270 ,7,1,0.,12.0,0.,12.0,0.,12.0,0.,12.0
1980-11-14 10:17:37.270 ,7,1,0.,12.0,2.,12.0,0.,12.0,0.,12.0
1980-11-14 10:17:49.270 ,7,1,0.,12.0,4.,12.0,0.,12.0,0.,12.0
1980-11-14 10:18:01.270 ,7,1,0.,12.0,3.,12.0,0.,12.0,0.,12.0
1980-11-14 10:18:13.270 ,7,1,0.,12.0,3.,12.0,0.,12.0,0.,12.0
1980-11-14 10:18:25.270 ,7,1,0.,12.0,6.,12.0,0.,12.0,0.,12.0
1980-11-14 10:18:37.270 ,7,0,0.,12.0,6.,12.0,0.,12.0,0.,12.0
1980-11-14 10:18:49.270 ,7,0,0.,12.0,6.,12.0,0.,12.0,0.,12.0
1980-11-14 10:19:01.270 ,6,1,0.,12.0,5.,12.0,0.,12.0,0.,12.0
1980-11-14 10:19:13.270 ,6,1,0.,12.0,2.,12.0,0.,12.0,0.,12.0
1980-11-14 10:19:25.270 ,6,0,0.,12.0,0.,12.0,0.,12.0,0.,12.0
1980-11-14 10:19:37.270 ,6,0,0.,12.0,0.,12.0,0.,12.0,0.,12.0
1980-11-14 10:19:49.270 ,5,1,0.,12.0,0.,12.0,0.,12.0,0.,12.0
1980-11-14 10:20:01.270 ,5,1,0.,12.0,0.,12.0,0.,12.0,0.,12.0
1980-11-14 10:20:13.270 ,5,0,0.,12.0,0.,12.0,0.,12.0,0.,12.0
1980-11-14 10:20:25.270 ,5,0,0.,12.0,0.,12.0,0.,12.0,0.,12.0
1980-11-14 10:20:37.270 ,4,1,0.,12.0,0.,12.0,0.,12.0,0.,12.0
1980-11-14 10:20:49.270 ,4,1,0.,12.0,0.,12.0,0.,12.0,0.,12.0
1980-11-14 10:21:01.270 ,4,0,0.,12.0,0.,12.0,0.,12.0,1.,12.0
1980-11-14 10:21:13.270 ,4,0,0.,12.0,0.,12.0,0.,12.0,1.,12.0
1980-11-14 10:21:25.270 ,3,1,0.,12.0,0.,12.0,0.,12.0,0.,12.0
1980-11-14 10:21:37.270 ,3,1,0.,12.0,0.,12.0,0.,12.0,0.,12.0
1980-11-14 10:21:49.270 ,3,0,0.,12.0,0.,12.0,0.,12.0,0.,12.0
1980-11-14 10:22:01.270 ,3,0,0.,12.0,0.,12.0,0.,12.0,0.,12.0
1980-11-14 10:22:13.270 ,2,1,0.,12.0,0.,12.0,0.,12.0,0.,12.0
1980-11-14 10:22:25.270 ,2,1,0.,12.0,0.,12.0,0.,12.0,0.,12.0
1980-11-14 10:22:37.270 ,2,0,0.,12.0,0.,12.0,0.,12.0,0.,12.0
1980-11-14 10:22:49.270 ,2,0,0.,12.0,0.,12.0,0.,12.0,0.,12.0
1980-11-14 10:23:01.270 ,1,1,0.,12.0,0.,12.0,0.,12.0,0.,12.0
1980-11-14 10:23:13.270 ,1,1,0.,12.0,0.,12.0,0.,12.0,0.,12.0
1980-11-14 10:23:25.270 ,1,0,0.,12.0,0.,12.0,0.,12.0,0.,12.0
1980-11-14 10:23:37.270 ,1,0,0.,12.0,0.,12.0,0.,12.0,0.,12.0
1980-11-14 10:23:49.270 ,0,1,0.,12.0,0.,12.0,0.,12.0,0.,12.0
1980-11-14 10:24:01.270 ,0,1,0.,12.0,0.,12.0,0.,12.0,0.,12.0
1980-11-14 10:24:13.270 ,0,0,0.,12.0,0.,12.0,0.,12.0,0.,12.0
1980-11-14 10:24:25.270 ,0,0,0.,12.0,0.,12.0,0.,12.0,0.,12.0
1980-11-14 10:24:37.270 ,0,1,0.,12.0,0.,12.0,0.,12.0,0.,12.0
1980-11-14 10:24:49.270 ,0,1,0.,12.0,0.,12.0,0.,12.0,0.,12.0
1980-11-14 10:25:01.270 ,0,0,0.,12.0,0.,12.0,0.,12.0,0.,12.0
1980-11-14 10:25:13.270 ,0,0,0.,12.0,0.,12.0,0.,12.0,0.,12.0
1980-11-14 10:25:25.270 ,1,1,0.,12.0,0.,12.0,0.,12.0,0.,12.0
1980-11-14 10:25:37.270 ,1,1,0.,12.0,0.,12.0,0.,12.0,0.,12.0
1980-11-14 10:25:49.270 ,1,0,0.,12.0,0.,12.0,0.,12.0,0.,12.0